owner,sensor,date,latitude,longitude,vertical_datum,wind_speed,wind_to_direction,wind_speed_of_gust,qcFlag 
COMPS,ioos:station:USF.COMPS:FHP:1,2019-05-10T15:54:00,28.1530,-82.8010,10.0,3.93,168.93,4.8,'11111222,11111222,11111222' 
COMPS,ioos:station:USF.COMPS:FHP:1,2019-05-10T16:54:00,28.1530,-82.8010,10.0,2.6,224.47,3.62,'11111222,11111222,11111222' 
COMPS,ioos:station:USF.COMPS:FHP:1,2019-05-10T17:54:00,28.1530,-82.8010,10.0,3.31,340.67,4.41,'11111222,11111222,11111222' 
COMPS,ioos:station:USF.COMPS:FHP:1,2019-05-10T18:54:00,28.1530,-82.8010,10.0,3.19,328.87,3.62,'11111222,11111222,11111222' 
COMPS,ioos:station:USF.COMPS:FHP:1,2019-05-10T19:54:00,28.1530,-82.8010,10.0,4.08,342.55,4.8,'11111222,11111222,11111222' 
COMPS,ioos:station:USF.COMPS:FHP:1,2019-05-10T20:54:00,28.1530,-82.8010,10.0,4.31,324.21,5.19,'11111222,11111222,11111222' 
COMPS,ioos:station:USF.COMPS:FHP:1,2019-05-10T21:54:00,28.1530,-82.8010,10.0,4.09,333.34,4.7,'11111222,11111222,11111222' 
COMPS,ioos:station:USF.COMPS:FHP:1,2019-05-10T22:54:00,28.1530,-82.8010,10.0,3.99,336.82,4.6,'11111222,11111222,11111222' 
COMPS,ioos:station:USF.COMPS:FHP:1,2019-05-10T23:54:00,28.1530,-82.8010,10.0,4.54,346.05,5.29,'11111222,11111222,11111222' 
COMPS,ioos:station:USF.COMPS:FHP:1,2019-05-11T00:54:00,28.1530,-82.8010,10.0,4.52,359.17,5.29,'11111222,11144222,11111222' 
COMPS,ioos:station:USF.COMPS:FHP:1,2019-05-11T01:54:00,28.1530,-82.8010,10.0,5.15,351.24,6.07,'11111222,11111222,11111222' 
COMPS,ioos:station:USF.COMPS:FHP:1,2019-05-11T02:54:00,28.1530,-82.8010,10.0,6.29,95.61,7.44,'11111222,11111222,11111222' 
COMPS,ioos:station:USF.COMPS:FHP:1,2019-05-11T03:54:00,28.1530,-82.8010,10.0,2.72,132.79,3.42,'11111222,11111222,11111222' 
COMPS,ioos:station:USF.COMPS:FHP:1,2019-05-11T04:54:00,28.1530,-82.8010,10.0,2.31,132.05,2.74,'11111222,11111222,11111222' 
COMPS,ioos:station:USF.COMPS:FHP:1,2019-05-11T05:54:00,28.1530,-82.8010,10.0,2.7,134.57,3.13,'11111222,11111222,11111222' 
COMPS,ioos:station:USF.COMPS:FHP:1,2019-05-11T06:54:00,28.1530,-82.8010,10.0,2.27,99.47,2.93,'11111222,11111222,11111222' 
COMPS,ioos:station:USF.COMPS:FHP:1,2019-05-11T07:54:00,28.1530,-82.8010,10.0,3.65,114.88,4.41,'11111222,11111222,11111222' 
COMPS,ioos:station:USF.COMPS:FHP:1,2019-05-11T08:54:00,28.1530,-82.8010,10.0,3.96,116.59,4.6,'11111222,11111222,11111222' 
COMPS,ioos:station:USF.COMPS:FHP:1,2019-05-11T09:54:00,28.1530,-82.8010,10.0,4.06,125.59,5.09,'11111222,11111222,11111222' 
COMPS,ioos:station:USF.COMPS:FHP:1,2019-05-11T10:54:00,28.1530,-82.8010,10.0,3.24,127.26,4.11,'11111222,11111222,11111222' 
COMPS,ioos:station:USF.COMPS:FHP:1,2019-05-11T11:54:00,28.1530,-82.8010,10.0,3.4,139.45,4.41,'11111222,11111222,11111222' 
COMPS,ioos:station:USF.COMPS:FHP:1,2019-05-13T12:54:00,28.1530,-82.8010,10.0,6.35,227.63,6.85,'11111222,11111222,11111222' 
COMPS,ioos:station:USF.COMPS:FHP:1,2019-05-13T13:54:00,28.1530,-82.8010,10.0,6.41,224.96,6.85,'11111222,11111222,11111222' 
COMPS,ioos:station:USF.COMPS:FHP:1,2019-05-13T14:54:00,28.1530,-82.8010,10.0,7.3,219.19,8.42,'11111222,11111222,11111222' 
COMPS,ioos:station:USF.COMPS:FHP:1,2019-05-13T15:54:00,28.1530,-82.8010,10.0,7.05,229.96,7.93,'11111222,11111222,11111222' 
COMPS,ioos:station:USF.COMPS:FHP:1,2019-05-13T16:54:00,28.1530,-82.8010,10.0,7.54,7.3,9.01,'11111222,11111222,11111222' 
COMPS,ioos:station:USF.COMPS:FHP:1,2019-05-13T17:54:00,28.1530,-82.8010,10.0,7.49,352.47,8.52,'11111222,11111222,11111222' 
COMPS,ioos:station:USF.COMPS:FHP:1,2019-05-13T18:54:00,28.1530,-82.8010,10.0,6.19,331.37,6.66,'11111222,11111222,11111222' 
COMPS,ioos:station:USF.COMPS:FHP:1,2019-05-13T19:54:00,28.1530,-82.8010,10.0,2.32,94.67,3.52,'11111222,11111222,11111222' 
COMPS,ioos:station:USF.COMPS:FHP:1,2019-05-13T20:54:00,28.1530,-82.8010,10.0,2.97,123.02,4.6,'11111222,11111222,11111222' 
COMPS,ioos:station:USF.COMPS:FHP:1,2019-05-13T21:54:00,28.1530,-82.8010,10.0,2.62,99.6,3.13,'11111222,11111222,11111222' 
COMPS,ioos:station:USF.COMPS:FHP:1,2019-05-13T22:54:00,28.1530,-82.8010,10.0,1.35,86.21,2.15,'11111222,11111222,11111222' 
COMPS,ioos:station:USF.COMPS:FHP:1,2019-05-13T23:54:00,28.1530,-82.8010,10.0,0.51,0.38,1.07,'11111222,11111222,11111222' 
COMPS,ioos:station:USF.COMPS:FHP:1,2019-05-14T00:54:00,28.1530,-82.8010,10.0,2.3,311.32,2.74,'11111222,11111222,11111222' 
COMPS,ioos:station:USF.COMPS:FHP:1,2019-05-14T01:54:00,28.1530,-82.8010,10.0,4.33,309.26,6.07,'11111222,11111222,11111222' 
COMPS,ioos:station:USF.COMPS:FHP:1,2019-05-14T02:54:00,28.1530,-82.8010,10.0,3.38,306.27,4.5,'11111222,11111222,11111222' 
COMPS,ioos:station:USF.COMPS:FHP:1,2019-05-14T03:54:00,28.1530,-82.8010,10.0,3.3,299.8,4.21,'11111222,11111222,11111222' 
COMPS,ioos:station:USF.COMPS:FHP:1,2019-05-14T04:54:00,28.1530,-82.8010,10.0,3.08,288.44,3.82,'11111222,11111222,11111222' 
COMPS,ioos:station:USF.COMPS:FHP:1,2019-05-14T05:54:00,28.1530,-82.8010,10.0,3.22,331.58,4.11,'11111222,11111222,11111222' 
COMPS,ioos:station:USF.COMPS:FHP:1,2019-05-14T06:54:00,28.1530,-82.8010,10.0,4.65,333.56,5.48,'11111222,11111222,11111222' 
COMPS,ioos:station:USF.COMPS:FHP:1,2019-05-14T07:54:00,28.1530,-82.8010,10.0,4.49,327.94,5.19,'11111222,11111222,11111222' 
COMPS,ioos:station:USF.COMPS:FHP:1,2019-05-14T08:54:00,28.1530,-82.8010,10.0,3.54,326.47,4.21,'11111222,11111222,11111222' 
COMPS,ioos:station:USF.COMPS:FHP:1,2019-05-14T09:54:00,28.1530,-82.8010,10.0,3.41,327.57,4.21,'11111222,11111222,11111222' 
COMPS,ioos:station:USF.COMPS:FHP:1,2019-05-14T10:54:00,28.1530,-82.8010,10.0,2.55,298.46,3.23,'11111222,11111222,11111222' 
COMPS,ioos:station:USF.COMPS:FHP:1,2019-05-14T11:54:00,28.1530,-82.8010,10.0,3.44,332.81,4.31,'11111222,11111222,11111222' 
COMPS,ioos:station:USF.COMPS:FHP:1,2019-05-14T12:54:00,28.1530,-82.8010,10.0,1.54,300.08,2.35,'11111222,11111222,11111222' 
COMPS,ioos:station:USF.COMPS:FHP:1,2019-05-14T13:54:00,28.1530,-82.8010,10.0,2.1,308.15,2.74,'11111222,11111222,11111222' 
COMPS,ioos:station:USF.COMPS:FHP:1,2019-05-14T14:54:00,28.1530,-82.8010,10.0,4.34,273.16,6.27,'11111222,11111222,11111222' 
COMPS,ioos:station:USF.COMPS:FHP:1,2019-05-14T15:54:00,28.1530,-82.8010,10.0,3.72,269.38,4.41,'11111222,11111222,11111222' 
COMPS,ioos:station:USF.COMPS:FHP:1,2019-05-14T16:54:00,28.1530,-82.8010,10.0,3.83,298.86,4.8,'11111222,11111222,11111222' 
COMPS,ioos:station:USF.COMPS:FHP:1,2019-05-14T17:54:00,28.1530,-82.8010,10.0,4.66,334.38,5.58,'11111222,11111222,11111222' 
COMPS,ioos:station:USF.COMPS:FHP:1,2019-05-14T18:54:00,28.1530,-82.8010,10.0,5.21,345.22,6.27,'11111222,11111222,11111222' 
COMPS,ioos:station:USF.COMPS:FHP:1,2019-05-14T19:54:00,28.1530,-82.8010,10.0,5.55,335.48,6.17,'11111222,11111222,11111222' 
COMPS,ioos:station:USF.COMPS:FHP:1,2019-05-14T20:54:00,28.1530,-82.8010,10.0,5.68,353.99,6.56,'11111222,11111222,11111222' 
COMPS,ioos:station:USF.COMPS:FHP:1,2019-05-14T21:54:00,28.1530,-82.8010,10.0,4.42,7.62,5.39,'11111222,11111222,11111222' 
COMPS,ioos:station:USF.COMPS:FHP:1,2019-05-14T22:54:00,28.1530,-82.8010,10.0,4.45,355.6,5.19,'11111222,11111222,11111222' 
COMPS,ioos:station:USF.COMPS:FHP:1,2019-05-14T23:54:00,28.1530,-82.8010,10.0,3.49,346.17,4.11,'11111222,11111222,11111222' 
COMPS,ioos:station:USF.COMPS:FHP:1,2019-05-15T00:54:00,28.1530,-82.8010,10.0,3.71,344.93,4.5,'11111222,11111222,11111222' 
COMPS,ioos:station:USF.COMPS:FHP:1,2019-05-15T01:54:00,28.1530,-82.8010,10.0,4.3,336.05,4.99,'11111222,11111222,11111222' 
COMPS,ioos:station:USF.COMPS:FHP:1,2019-05-15T02:54:00,28.1530,-82.8010,10.0,5.38,336.44,6.37,'11111222,11111222,11111222' 
COMPS,ioos:station:USF.COMPS:FHP:1,2019-05-15T03:54:00,28.1530,-82.8010,10.0,5.71,351.44,6.56,'11111222,11111222,11111222' 
COMPS,ioos:station:USF.COMPS:FHP:1,2019-05-15T04:54:00,28.1530,-82.8010,10.0,6.28,9.84,7.05,'11111222,11111222,11111222' 
COMPS,ioos:station:USF.COMPS:FHP:1,2019-05-15T05:54:00,28.1530,-82.8010,10.0,4.53,12.79,5.68,'11111222,11111222,11111222' 
COMPS,ioos:station:USF.COMPS:FHP:1,2019-05-15T06:54:00,28.1530,-82.8010,10.0,3.38,55.32,4.11,'11111222,11111222,11111222' 
COMPS,ioos:station:USF.COMPS:FHP:1,2019-05-15T07:54:00,28.1530,-82.8010,10.0,1.97,61.75,2.74,'11111222,11111222,11111222' 
COMPS,ioos:station:USF.COMPS:FHP:1,2019-05-15T08:54:00,28.1530,-82.8010,10.0,1.74,39.06,2.93,'11111222,11111222,11111222' 
COMPS,ioos:station:USF.COMPS:FHP:1,2019-05-15T09:54:00,28.1530,-82.8010,10.0,1.87,60.27,2.35,'11111222,11111222,11111222' 
COMPS,ioos:station:USF.COMPS:FHP:1,2019-05-15T10:54:00,28.1530,-82.8010,10.0,1.27,78.51,1.56,'11111222,11111222,11111222' 
COMPS,ioos:station:USF.COMPS:FHP:1,2019-05-15T11:54:00,28.1530,-82.8010,10.0,0.68,86.58,1.17,'11111222,11111222,11111222' 
COMPS,ioos:station:USF.COMPS:FHP:1,2019-05-15T12:54:00,28.1530,-82.8010,10.0,0.81,57.92,1.46,'11111222,11111222,11111222' 
COMPS,ioos:station:USF.COMPS:FHP:1,2019-05-15T13:54:00,28.1530,-82.8010,10.0,0.54,37.19,1.17,'11111222,11111222,11111222' 
COMPS,ioos:station:USF.COMPS:FHP:1,2019-05-15T14:54:00,28.1530,-82.8010,10.0,3.13,354.93,3.42,'11111222,11111222,11111222' 
COMPS,ioos:station:USF.COMPS:FHP:1,2019-05-15T15:54:00,28.1530,-82.8010,10.0,3.66,1.38,4.31,'11111222,11111222,11111222' 
COMPS,ioos:station:USF.COMPS:FHP:1,2019-05-15T16:54:00,28.1530,-82.8010,10.0,4.25,348.96,4.8,'11111222,11111222,11111222' 
COMPS,ioos:station:USF.COMPS:FHP:1,2019-05-15T17:54:00,28.1530,-82.8010,10.0,2.91,335.53,3.72,'11111222,11111222,11111222' 
COMPS,ioos:station:USF.COMPS:FHP:1,2019-05-15T18:54:00,28.1530,-82.8010,10.0,4.14,323.9,4.7,'11111222,11111222,11111222' 
COMPS,ioos:station:USF.COMPS:FHP:1,2019-05-15T19:54:00,28.1530,-82.8010,10.0,4.23,325.45,4.9,'11111222,11111222,11111222' 
COMPS,ioos:station:USF.COMPS:FHP:1,2019-05-15T20:54:00,28.1530,-82.8010,10.0,3.86,321.38,4.6,'11111222,11111222,11111222' 
COMPS,ioos:station:USF.COMPS:FHP:1,2019-05-15T21:54:00,28.1530,-82.8010,10.0,4.32,326.49,5.58,'11111222,11111222,11111222' 
COMPS,ioos:station:USF.COMPS:FHP:1,2019-05-15T22:54:00,28.1530,-82.8010,10.0,5.06,345.27,5.78,'11111222,11111222,11111222' 
COMPS,ioos:station:USF.COMPS:FHP:1,2019-05-15T23:54:00,28.1530,-82.8010,10.0,5.36,346.82,6.76,'11111222,11111222,11111222' 
COMPS,ioos:station:USF.COMPS:FHP:1,2019-05-16T00:54:00,28.1530,-82.8010,10.0,5.08,354.68,5.78,'11111222,11111222,11111222' 
COMPS,ioos:station:USF.COMPS:FHP:1,2019-05-16T01:54:00,28.1530,-82.8010,10.0,6.16,359.0,6.95,'11111222,11111222,11111222' 
COMPS,ioos:station:USF.COMPS:FHP:1,2019-05-16T02:54:00,28.1530,-82.8010,10.0,5.89,25.93,7.05,'11111222,11111222,11111222' 
COMPS,ioos:station:USF.COMPS:FHP:1,2019-05-16T03:54:00,28.1530,-82.8010,10.0,3.09,71.58,4.21,'11111222,11111222,11111222' 
COMPS,ioos:station:USF.COMPS:FHP:1,2019-05-16T04:54:00,28.1530,-82.8010,10.0,3.86,99.81,4.8,'11111222,11111222,11111222' 
COMPS,ioos:station:USF.COMPS:FHP:1,2019-05-16T05:54:00,28.1530,-82.8010,10.0,5.18,110.56,6.66,'11111222,11111222,11111222' 
COMPS,ioos:station:USF.COMPS:FHP:1,2019-05-16T06:54:00,28.1530,-82.8010,10.0,3.69,127.4,4.5,'11111222,11111222,11111222' 
COMPS,ioos:station:USF.COMPS:FHP:1,2019-05-16T07:54:00,28.1530,-82.8010,10.0,3.7,118.43,4.41,'11111222,11111222,11111222' 
COMPS,ioos:station:USF.COMPS:FHP:1,2019-05-16T08:54:00,28.1530,-82.8010,10.0,2.78,77.89,3.33,'11111222,11111222,11111222' 
COMPS,ioos:station:USF.COMPS:FHP:1,2019-05-16T09:54:00,28.1530,-82.8010,10.0,3.37,71.63,3.82,'11111222,11111222,11111222' 
COMPS,ioos:station:USF.COMPS:FHP:1,2019-05-16T10:54:00,28.1530,-82.8010,10.0,3.71,94.72,4.6,'11111222,11111222,11111222' 
COMPS,ioos:station:USF.COMPS:FHP:1,2019-05-16T11:54:00,28.1530,-82.8010,10.0,3.76,79.53,4.6,'11111222,11111222,11111222' 
COMPS,ioos:station:USF.COMPS:FHP:1,2019-05-16T12:54:00,28.1530,-82.8010,10.0,3.92,91.6,5.58,'11111222,11111222,11111222' 
COMPS,ioos:station:USF.COMPS:FHP:1,2019-05-16T13:54:00,28.1530,-82.8010,10.0,3.54,94.68,5.48,'11111222,11111222,11111222' 
COMPS,ioos:station:USF.COMPS:FHP:1,2019-05-16T14:54:00,28.1530,-82.8010,10.0,2.51,101.04,3.62,'11111222,11111222,11111222' 
COMPS,ioos:station:USF.COMPS:FHP:1,2019-05-16T15:54:00,28.1530,-82.8010,10.0,2.33,107.45,3.62,'11111222,11111222,11111222' 
COMPS,ioos:station:USF.COMPS:FHP:1,2019-05-16T16:54:00,28.1530,-82.8010,10.0,2.53,85.46,4.21,'11111222,11111222,11111222' 
COMPS,ioos:station:USF.COMPS:FHP:1,2019-05-16T17:54:00,28.1530,-82.8010,10.0,3.73,334.63,4.5,'11111222,11111222,11111222' 
COMPS,ioos:station:USF.COMPS:FHP:1,2019-05-16T18:54:00,28.1530,-82.8010,10.0,5.03,343.01,5.68,'11111222,11111222,11111222' 
COMPS,ioos:station:USF.COMPS:FHP:1,2019-05-16T19:54:00,28.1530,-82.8010,10.0,4.98,338.8,5.58,'11111222,11111222,11111222' 
COMPS,ioos:station:USF.COMPS:FHP:1,2019-05-16T20:54:00,28.1530,-82.8010,10.0,5.27,343.6,5.97,'11111222,11111222,11111222' 
COMPS,ioos:station:USF.COMPS:FHP:1,2019-05-16T21:54:00,28.1530,-82.8010,10.0,5.16,344.99,6.37,'11111222,11111222,11111222' 
COMPS,ioos:station:USF.COMPS:FHP:1,2019-05-16T22:54:00,28.1530,-82.8010,10.0,5.5,343.93,6.17,'11111222,11111222,11111222' 
COMPS,ioos:station:USF.COMPS:FHP:1,2019-05-16T23:54:00,28.1530,-82.8010,10.0,5.22,359.28,5.97,'11111222,11144222,11111222' 
COMPS,ioos:station:USF.COMPS:FHP:1,2019-05-17T00:54:00,28.1530,-82.8010,10.0,4.94,5.65,5.87,'11111222,11111222,11111222' 
COMPS,ioos:station:USF.COMPS:FHP:1,2019-05-17T01:54:00,28.1530,-82.8010,10.0,3.42,48.57,4.11,'11111222,11111222,11111222' 
COMPS,ioos:station:USF.COMPS:FHP:1,2019-05-17T02:54:00,28.1530,-82.8010,10.0,2.52,117.6,3.23,'11111222,11111222,11111222' 
COMPS,ioos:station:USF.COMPS:FHP:1,2019-05-17T03:54:00,28.1530,-82.8010,10.0,5.46,144.08,6.56,'11111222,11111222,11111222' 
COMPS,ioos:station:USF.COMPS:FHP:1,2019-05-17T04:54:00,28.1530,-82.8010,10.0,4.3,131.17,5.87,'11111222,11111222,11111222' 
COMPS,ioos:station:USF.COMPS:FHP:1,2019-05-17T05:54:00,28.1530,-82.8010,10.0,4.21,126.44,5.29,'11111222,11111222,11111222' 
COMPS,ioos:station:USF.COMPS:FHP:1,2019-05-17T06:54:00,28.1530,-82.8010,10.0,2.99,120.36,4.11,'11111222,11111222,11111222' 
COMPS,ioos:station:USF.COMPS:FHP:1,2019-05-17T07:54:00,28.1530,-82.8010,10.0,2.68,126.31,3.13,'11111222,11111222,11111222' 
COMPS,ioos:station:USF.COMPS:FHP:1,2019-05-17T08:54:00,28.1530,-82.8010,10.0,3.19,122.68,3.91,'11111222,11111222,11111222' 
COMPS,ioos:station:USF.COMPS:FHP:1,2019-05-17T09:54:00,28.1530,-82.8010,10.0,2.89,113.2,3.52,'11111222,11111222,11111222' 
COMPS,ioos:station:USF.COMPS:FHP:1,2019-05-17T10:54:00,28.1530,-82.8010,10.0,3.59,124.12,4.21,'11111222,11111222,11111222' 
COMPS,ioos:station:USF.COMPS:FHP:1,2019-05-17T11:54:00,28.1530,-82.8010,10.0,4.14,103.32,5.19,'11111222,11111222,11111222' 
COMPS,ioos:station:USF.COMPS:FHP:1,2019-05-17T12:54:00,28.1530,-82.8010,10.0,3.61,146.86,4.11,'11111222,11111222,11111222' 
COMPS,ioos:station:USF.COMPS:FHP:1,2019-05-17T13:54:00,28.1530,-82.8010,10.0,3.14,132.61,3.91,'11111222,11111222,11111222' 
COMPS,ioos:station:USF.COMPS:FHP:1,2019-05-17T14:54:00,28.1530,-82.8010,10.0,2.21,164.1,2.93,'11111222,11111222,11111222' 
COMPS,ioos:station:USF.COMPS:FHP:1,2019-05-17T15:54:00,28.1530,-82.8010,10.0,1.3,264.09,1.66,'11111222,11111222,11111222' 
COMPS,ioos:station:USF.COMPS:FHP:1,2019-05-17T16:54:00,28.1530,-82.8010,10.0,1.89,318.27,2.25,'11111222,11111222,11111222' 
COMPS,ioos:station:USF.COMPS:FHP:1,2019-05-17T17:54:00,28.1530,-82.8010,10.0,3.1,321.28,3.62,'11111222,11111222,11111222' 
COMPS,ioos:station:USF.COMPS:FHP:1,2019-05-17T18:54:00,28.1530,-82.8010,10.0,3.78,327.84,4.5,'11111222,11111222,11111222' 
COMPS,ioos:station:USF.COMPS:FHP:1,2019-05-17T19:54:00,28.1530,-82.8010,10.0,4.72,341.32,5.48,'11111222,11111222,11111222' 
COMPS,ioos:station:USF.COMPS:FHP:1,2019-05-17T20:54:00,28.1530,-82.8010,10.0,5.06,332.09,5.78,'11111222,11111222,11111222' 
COMPS,ioos:station:USF.COMPS:FHP:1,2019-05-17T21:54:00,28.1530,-82.8010,10.0,3.74,342.65,4.31,'11111222,11111222,11111222' 
COMPS,ioos:station:USF.COMPS:FHP:1,2019-05-17T22:54:00,28.1530,-82.8010,10.0,3.56,337.76,4.01,'11111222,11111222,11111222' 
COMPS,ioos:station:USF.COMPS:FHP:1,2019-05-17T23:54:00,28.1530,-82.8010,10.0,4.34,355.98,4.99,'11111222,11111222,11111222' 
COMPS,ioos:station:USF.COMPS:FHP:1,2019-05-18T00:54:00,28.1530,-82.8010,10.0,2.66,6.63,3.33,'11111222,11111222,11111222' 
COMPS,ioos:station:USF.COMPS:FHP:1,2019-05-18T01:54:00,28.1530,-82.8010,10.0,2.18,65.45,2.74,'11111222,11111222,11111222' 
COMPS,ioos:station:USF.COMPS:FHP:1,2019-05-18T02:54:00,28.1530,-82.8010,10.0,2.21,71.82,2.64,'11111222,11111222,11111222' 
COMPS,ioos:station:USF.COMPS:FHP:1,2019-05-18T03:54:00,28.1530,-82.8010,10.0,1.88,106.86,2.54,'11111222,11111222,11111222' 
COMPS,ioos:station:USF.COMPS:FHP:1,2019-05-18T04:54:00,28.1530,-82.8010,10.0,2.27,130.88,3.03,'11111222,11111222,11111222' 
COMPS,ioos:station:USF.COMPS:FHP:1,2019-05-18T05:54:00,28.1530,-82.8010,10.0,2.86,141.67,3.82,'11111222,11111222,11111222' 
COMPS,ioos:station:USF.COMPS:FHP:1,2019-05-18T06:54:00,28.1530,-82.8010,10.0,1.1,104.29,1.46,'11111222,11111222,11111222' 
COMPS,ioos:station:USF.COMPS:FHP:1,2019-05-18T07:54:00,28.1530,-82.8010,10.0,2.4,104.67,3.13,'11111222,11111222,11111222' 
COMPS,ioos:station:USF.COMPS:FHP:1,2019-05-18T08:54:00,28.1530,-82.8010,10.0,2.86,119.0,3.52,'11111222,11111222,11111222' 
COMPS,ioos:station:USF.COMPS:FHP:1,2019-05-18T09:54:00,28.1530,-82.8010,10.0,2.54,108.27,3.62,'11111222,11111222,11111222' 
COMPS,ioos:station:USF.COMPS:FHP:1,2019-05-18T10:54:00,28.1530,-82.8010,10.0,3.04,92.49,3.82,'11111222,11111222,11111222' 
COMPS,ioos:station:USF.COMPS:FHP:1,2019-05-18T11:54:00,28.1530,-82.8010,10.0,3.15,105.5,4.31,'11111222,11111222,11111222' 
COMPS,ioos:station:USF.COMPS:FHP:1,2019-05-18T12:54:00,28.1530,-82.8010,10.0,2.27,129.12,3.33,'11111222,11111222,11111222' 
COMPS,ioos:station:USF.COMPS:FHP:1,2019-05-18T13:54:00,28.1530,-82.8010,10.0,2.31,121.64,3.42,'11111222,11111222,11111222' 
COMPS,ioos:station:USF.COMPS:FHP:1,2019-05-18T14:54:00,28.1530,-82.8010,10.0,0.75,211.12,1.17,'11111222,11111222,11111222' 
COMPS,ioos:station:USF.COMPS:FHP:1,2019-05-18T15:54:00,28.1530,-82.8010,10.0,1.64,281.54,2.05,'11111222,11111222,11111222' 
COMPS,ioos:station:USF.COMPS:FHP:1,2019-05-18T16:54:00,28.1530,-82.8010,10.0,3.17,324.36,3.62,'11111222,11111222,11111222' 
COMPS,ioos:station:USF.COMPS:FHP:1,2019-05-18T17:54:00,28.1530,-82.8010,10.0,4.12,336.33,4.7,'11111222,11111222,11111222' 
COMPS,ioos:station:USF.COMPS:FHP:1,2019-05-18T18:54:00,28.1530,-82.8010,10.0,3.7,335.05,4.7,'11111222,11111222,11111222' 
COMPS,ioos:station:USF.COMPS:FHP:1,2019-05-18T19:54:00,28.1530,-82.8010,10.0,3.9,289.62,4.9,'11111222,11111222,11111222' 
COMPS,ioos:station:USF.COMPS:FHP:1,2019-05-18T20:54:00,28.1530,-82.8010,10.0,3.34,320.6,4.11,'11111222,11111222,11111222' 
COMPS,ioos:station:USF.COMPS:FHP:1,2019-05-18T21:54:00,28.1530,-82.8010,10.0,4.29,333.07,5.09,'11111222,11111222,11111222' 
COMPS,ioos:station:USF.COMPS:FHP:1,2019-05-18T22:54:00,28.1530,-82.8010,10.0,4.38,351.28,4.99,'11111222,11111222,11111222' 
COMPS,ioos:station:USF.COMPS:FHP:1,2019-05-18T23:54:00,28.1530,-82.8010,10.0,3.15,349.66,3.82,'11111222,11111222,11111222' 
COMPS,ioos:station:USF.COMPS:FHP:1,2019-05-19T00:54:00,28.1530,-82.8010,10.0,3.56,354.45,4.11,'11111222,11111222,11111222' 
COMPS,ioos:station:USF.COMPS:FHP:1,2019-05-19T01:54:00,28.1530,-82.8010,10.0,2.11,109.86,4.21,'11111222,11111222,11111222' 
COMPS,ioos:station:USF.COMPS:FHP:1,2019-05-19T02:54:00,28.1530,-82.8010,10.0,3.16,93.46,3.91,'11111222,11111222,11111222' 
COMPS,ioos:station:USF.COMPS:FHP:1,2019-05-19T03:54:00,28.1530,-82.8010,10.0,5.17,129.97,6.37,'11111222,11111222,11111222' 
COMPS,ioos:station:USF.COMPS:FHP:1,2019-05-19T04:54:00,28.1530,-82.8010,10.0,5.03,114.84,5.78,'11111222,11111222,11111222' 
COMPS,ioos:station:USF.COMPS:FHP:1,2019-05-19T05:54:00,28.1530,-82.8010,10.0,4.04,110.63,5.48,'11111222,11111222,11111222' 
COMPS,ioos:station:USF.COMPS:FHP:1,2019-05-19T06:54:00,28.1530,-82.8010,10.0,3.64,123.31,4.41,'11111222,11111222,11111222' 
COMPS,ioos:station:USF.COMPS:FHP:1,2019-05-19T07:54:00,28.1530,-82.8010,10.0,2.87,126.77,3.72,'11111222,11111222,11111222' 
COMPS,ioos:station:USF.COMPS:FHP:1,2019-05-19T08:54:00,28.1530,-82.8010,10.0,1.81,107.17,2.15,'11111222,11111222,11111222' 
COMPS,ioos:station:USF.COMPS:FHP:1,2019-05-19T09:54:00,28.1530,-82.8010,10.0,3.31,93.83,4.41,'11111222,11111222,11111222' 
COMPS,ioos:station:USF.COMPS:FHP:1,2019-05-19T10:54:00,28.1530,-82.8010,10.0,2.31,99.58,2.84,'11111222,11111222,11111222' 
COMPS,ioos:station:USF.COMPS:FHP:1,2019-05-19T11:54:00,28.1530,-82.8010,10.0,3.43,110.14,4.21,'11111222,11111222,11111222' 
COMPS,ioos:station:USF.COMPS:FHP:1,2019-05-19T12:54:00,28.1530,-82.8010,10.0,3.44,135.19,4.31,'11111222,11111222,11111222' 
COMPS,ioos:station:USF.COMPS:FHP:1,2019-05-19T13:54:00,28.1530,-82.8010,10.0,2.35,182.12,3.03,'11111222,11111222,11111222' 
COMPS,ioos:station:USF.COMPS:FHP:1,2019-05-19T14:54:00,28.1530,-82.8010,10.0,1.94,226.24,2.35,'11111222,11111222,11111222' 
COMPS,ioos:station:USF.COMPS:FHP:1,2019-05-19T15:54:00,28.1530,-82.8010,10.0,1.43,259.24,1.86,'11111222,11111222,11111222' 
COMPS,ioos:station:USF.COMPS:FHP:1,2019-05-19T16:54:00,28.1530,-82.8010,10.0,3.46,281.72,4.01,'11111222,11111222,11111222' 
COMPS,ioos:station:USF.COMPS:FHP:1,2019-05-19T17:54:00,28.1530,-82.8010,10.0,3.44,284.27,4.41,'11111222,11111222,11111222' 
COMPS,ioos:station:USF.COMPS:FHP:1,2019-05-19T18:54:00,28.1530,-82.8010,10.0,3.82,292.57,4.21,'11111222,11111222,11111222' 
COMPS,ioos:station:USF.COMPS:FHP:1,2019-05-19T19:54:00,28.1530,-82.8010,10.0,4.11,320.51,5.09,'11111222,11111222,11111222' 
COMPS,ioos:station:USF.COMPS:FHP:1,2019-05-19T20:54:00,28.1530,-82.8010,10.0,3.07,328.63,3.82,'11111222,11111222,11111222' 
COMPS,ioos:station:USF.COMPS:FHP:1,2019-05-19T21:54:00,28.1530,-82.8010,10.0,4.34,332.97,5.09,'11111222,11111222,11111222' 
COMPS,ioos:station:USF.COMPS:FHP:1,2019-05-19T22:54:00,28.1530,-82.8010,10.0,4.26,334.81,4.9,'11111222,11111222,11111222' 
COMPS,ioos:station:USF.COMPS:FHP:1,2019-05-19T23:54:00,28.1530,-82.8010,10.0,5.31,323.71,6.07,'11111222,11111222,11111222' 
COMPS,ioos:station:USF.COMPS:FHP:1,2019-05-20T00:54:00,28.1530,-82.8010,10.0,4.04,347.97,5.09,'11111222,11111222,11111222' 
COMPS,ioos:station:USF.COMPS:FHP:1,2019-05-20T01:54:00,28.1530,-82.8010,10.0,3.71,350.51,4.6,'11111222,11111222,11111222' 
COMPS,ioos:station:USF.COMPS:FHP:1,2019-05-20T02:54:00,28.1530,-82.8010,10.0,3.16,5.45,3.72,'11111222,11111222,11111222' 
COMPS,ioos:station:USF.COMPS:FHP:1,2019-05-20T03:54:00,28.1530,-82.8010,10.0,2.96,107.94,3.82,'11111222,11111222,11111222' 
COMPS,ioos:station:USF.COMPS:FHP:1,2019-05-20T04:54:00,28.1530,-82.8010,10.0,0.58,89.12,1.27,'11111222,11111222,11111222' 
COMPS,ioos:station:USF.COMPS:FHP:1,2019-05-20T05:54:00,28.1530,-82.8010,10.0,1.09,111.22,1.46,'11111222,11111222,11111222' 
COMPS,ioos:station:USF.COMPS:FHP:1,2019-05-20T06:54:00,28.1530,-82.8010,10.0,1.65,89.59,2.15,'11111222,11111222,11111222' 
COMPS,ioos:station:USF.COMPS:FHP:1,2019-05-20T07:54:00,28.1530,-82.8010,10.0,2.04,96.68,2.35,'11111222,11111222,11111222' 
COMPS,ioos:station:USF.COMPS:FHP:1,2019-05-20T08:54:00,28.1530,-82.8010,10.0,2.64,106.98,3.33,'11111222,11111222,11111222' 
COMPS,ioos:station:USF.COMPS:FHP:1,2019-05-20T09:54:00,28.1530,-82.8010,10.0,1.51,105.73,2.05,'11111222,11111222,11111222' 
COMPS,ioos:station:USF.COMPS:FHP:1,2019-05-20T10:54:00,28.1530,-82.8010,10.0,1.98,109.76,2.74,'11111222,11111222,11111222' 
COMPS,ioos:station:USF.COMPS:FHP:1,2019-05-20T11:54:00,28.1530,-82.8010,10.0,2.3,109.24,3.23,'11111222,11111222,11111222' 
COMPS,ioos:station:USF.COMPS:FHP:1,2019-05-20T12:54:00,28.1530,-82.8010,10.0,2.19,121.55,3.23,'11111222,11111222,11111222' 
COMPS,ioos:station:USF.COMPS:FHP:1,2019-05-20T13:54:00,28.1530,-82.8010,10.0,1.32,138.97,2.25,'11111222,11111222,11111222' 
COMPS,ioos:station:USF.COMPS:FHP:1,2019-05-20T14:54:00,28.1530,-82.8010,10.0,0.91,257.41,1.17,'11111222,11111222,11111222' 
COMPS,ioos:station:USF.COMPS:FHP:1,2019-05-20T15:54:00,28.1530,-82.8010,10.0,3.14,338.27,3.72,'11111222,11111222,11111222' 